QPF
0.00 0.00 0.01 0.04 0.05 0.05 0.04 0.03 0.02 0.01 0.00 0.00 0.00 0.00 0.00 0.00 0.00 0.00 0.00 0.00 0.00 0.00 0.00 0.00 0.00 0.00 0.00 0.00 0.00 0.00 0.00 0.00 0.00 0.00 0.00 0.00 0.00 0.00 0.00 0.00 0.00 0.00 0.00
0.00 0.00 0.01 0.04 0.05 0.04 0.05 0.02 0.01 0.01 0.00 0.00 0.00 0.00 0.00 0.00 0.00 0.00 0.00 0.00 0.00 0.00 0.00 0.00 0.00 0.00 0.00 0.00 0.00 0.00 0.00 0.00 0.00 0.00 0.00 0.00 0.00 0.00 0.00 0.00 0.00 0.00 0.00
0.00 0.00 0.01 0.02 0.03 0.04 0.04 0.02 0.01 0.01 0.01 0.00 0.00 0.00 0.00 0.00 0.00 0.00 0.00 0.00 0.00 0.00 0.00 0.00 0.00 0.00 0.00 0.00 0.00 0.00 0.00 0.00 0.00 0.00 0.00 0.00 0.00 0.00 0.00 0.00 0.00 0.00 0.00
0.00 0.00 0.01 0.03 0.02 0.03 0.04 0.02 0.01 0.00 0.00 0.00 0.00 0.00 0.00 0.00 0.00 0.00 0.00 0.00 0.00 0.00 0.00 0.00 0.00 0.00 0.00 0.00 0.00 0.00 0.00 0.00 0.00 0.00 0.00 0.00 0.00 0.00 0.00 0.00 0.00 0.00 0.00
0.01 0.01 0.01 0.00 0.00 0.00 0.00 0.01 0.00 0.00 0.00 0.00 0.00 0.00 0.00 0.00 0.00 0.00 0.00 0.00 0.00 0.00 0.00 0.00 0.00 0.00 0.00 0.00 0.00 0.00 0.00 0.00 0.00 0.00 0.00 0.00 0.00 0.00 0.00 0.00 0.00 0.00 0.00
0.01 0.01 0.00 0.00 0.00 0.00 0.00 0.00 0.00 0.00 0.00 0.00 0.00 0.00 0.00 0.00 0.00 0.00 0.00 0.00 0.00 0.00 0.00 0.00 0.00 0.00 0.00 0.00 0.00 0.00 0.00 0.00 0.00 0.00 0.00 0.00 0.00 0.00 0.00 0.00 0.00 0.00 0.00
0.00 0.00 0.00 0.00 0.00 0.00 0.00 0.00 0.00 0.00 0.00 0.00 0.00 0.00 0.00 0.00 0.00 0.00 0.00 0.00 0.00 0.00 0.00 0.00 0.00 0.00 0.00 0.00 0.00 0.00 0.00 0.00 0.00 0.00 0.00 0.00 0.00 0.00 0.00 0.00 0.00 0.00 0.00
0.00 0.00 0.00 0.00 0.00 0.00 0.00 0.00 0.00 0.00 0.00 0.00 0.00 0.00 0.00 0.00 0.00 0.00 0.00 0.00 0.00 0.00 0.00 0.00 0.00 0.00 0.00 0.00 0.00 0.00 0.00 0.00 0.00 0.00 0.00 0.00 0.00 0.00 0.00 0.00 0.00 0.00 0.00
0.00 0.00 0.00 0.00 0.00 0.00 0.00 0.00 0.00 0.00 0.00 0.00 0.00 0.00 0.00 0.00 0.00 0.00 0.00 0.00 0.00 0.00 0.00 0.00 0.00 0.00 0.00 0.00 0.00 0.00 0.00 0.00 0.00 0.00 0.00 0.00 0.00 0.00 0.00 0.00 0.00 0.00 0.00
0.00 0.00 0.00 0.00 0.00 0.00 0.00 0.00 0.00 0.00 0.00 0.00 0.00 0.00 0.00 0.00 0.00 0.00 0.00 0.00 0.00 0.00 0.00 0.00 0.00 0.00 0.00 0.00 0.00 0.00 0.00 0.00 0.00 0.00 0.00 0.00 0.00 0.00 0.00 0.00 0.00 0.00 0.00
0.00 0.00 0.00 0.00 0.00 0.00 0.00 0.00 0.00 0.00 0.00 0.00 0.00 0.00 0.00 0.00 0.00 0.00 0.00 0.00 0.00 0.00 0.00 0.00 0.00 0.00 0.00 0.00 0.00 0.00 0.00 0.00 0.00 0.00 0.00 0.00 0.00 0.00 0.00 0.00 0.00 0.00 0.00
0.00 0.00 0.00 0.00 0.00 0.00 0.00 0.00 0.00 0.00 0.00 0.00 0.00 0.00 0.00 0.00 0.00 0.00 0.00 0.00 0.00 0.00 0.00 0.00 0.00 0.00 0.00 0.00 0.00 0.00 0.00 0.00 0.00 0.00 0.00 0.00 0.00 0.00 0.00 0.00 0.00 0.00 0.00
0.00 0.00 0.00 0.00 0.00 0.00 0.00 0.00 0.00 0.00 0.00 0.00 0.00 0.00 0.00 0.00 0.00 0.00 0.00 0.00 0.00 0.00 0.00 0.00 0.00 0.00 0.00 0.00 0.00 0.00 0.00 0.00 0.00 0.00 0.00 0.00 0.00 0.00 0.00 0.00 0.00 0.00 0.00
0.00 0.00 0.00 0.00 0.00 0.00 0.00 0.00 0.00 0.00 0.00 0.00 0.00 0.00 0.00 0.00 0.00 0.00 0.00 0.00 0.00 0.00 0.00 0.00 0.00 0.00 0.00 0.00 0.00 0.00 0.00 0.00 0.00 0.00 0.00 0.00 0.00 0.00 0.00 0.00 0.00 0.00 0.00
0.00 0.00 0.00 0.00 0.00 0.00 0.00 0.00 0.00 0.00 0.00 0.00 0.00 0.00 0.00 0.00 0.00 0.00 0.00 0.00 0.00 0.00 0.01 0.01 0.01 0.01 0.01 0.01 0.01 0.01 0.00 0.00 0.00 0.01 0.01 0.01 0.00 0.00 0.00 0.00 0.00 0.00 0.00
0.00 0.00 0.00 0.00 0.00 0.00 0.00 0.00 0.00 0.00 0.00 0.00 0.00 0.00 0.00 0.00 0.00 0.00 0.00 0.00 0.00 0.00 0.01 0.01 0.02 0.02 0.02 0.01 0.02 0.01 0.00 0.00 0.00 0.00 0.01 0.00 0.00 0.00 0.00 0.00 0.00 0.00 0.00
0.00 0.00 0.00 0.00 0.00 0.00 0.00 0.00 0.00 0.00 0.00 0.00 0.00 0.00 0.00 0.00 0.00 0.00 0.00 0.00 0.00 0.00 0.01 0.01 0.02 0.02 0.02 0.02 0.01 0.01 0.00 0.00 0.00 0.00 0.00 0.00 0.00 0.00 0.00 0.00 0.00 0.00 0.00
0.00 0.00 0.00 0.00 0.00 0.00 0.00 0.00 0.00 0.00 0.00 0.00 0.00 0.00 0.00 0.00 0.00 0.00 0.00 0.00 0.00 0.00 0.00 0.00 0.01 0.01 0.01 0.02 0.01 0.01 0.01 0.01 0.00 0.00 0.00 0.00 0.00 0.00 0.01 0.00 0.00 0.00 0.00
0.00 0.00 0.00 0.00 0.00 0.00 0.00 0.00 0.00 0.00 0.00 0.00 0.00 0.00 0.00 0.00 0.00 0.00 0.00 0.00 0.00 0.00 0.00 0.00 0.00 0.00 0.01 0.01 0.02 0.01 0.01 0.01 0.01 0.01 0.01 0.01 0.01 0.00 0.00 0.00 0.00 0.00 0.00
0.00 0.00 0.00 0.00 0.00 0.00 0.00 0.00 0.00 0.00 0.00 0.00 0.00 0.00 0.00 0.00 0.00 0.00 0.00 0.00 0.00 0.00 0.00 0.00 0.00 0.00 0.00 0.00 0.01 0.01 0.01 0.01 0.01 0.00 0.00 0.01 0.01 0.00 0.00 0.00 0.00 0.00 0.00
0.00 0.00 0.00 0.00 0.00 0.00 0.00 0.00 0.00 0.00 0.00 0.00 0.00 0.00 0.00 0.00 0.00 0.00 0.00 0.00 0.00 0.00 0.00 0.00 0.00 0.00 0.00 0.00 0.00 0.00 0.01 0.01 0.01 0.01 0.00 0.00 0.01 0.00 0.00 0.00 0.00 0.00 0.00
0.00 0.00 0.00 0.00 0.00 0.00 0.00 0.00 0.00 0.00 0.00 0.00 0.00 0.00 0.00 0.00 0.00 0.00 0.00 0.00 0.00 0.00 0.00 0.00 0.00 0.00 0.00 0.00 0.00 0.00 0.00 0.00 0.01 0.01 0.01 0.01 0.00 0.00 0.00 0.00 0.00 0.00 0.00
0.00 0.00 0.00 0.00 0.00 0.00 0.00 0.00 0.00 0.00 0.00 0.00 0.00 0.00 0.00 0.00 0.00 0.00 0.00 0.00 0.00 0.00 0.00 0.00 0.00 0.00 0.00 0.00 0.00 0.00 0.00 0.00 0.00 0.01 0.01 0.01 0.00 0.00 0.00 0.00 0.00 0.00 0.00
0.00 0.00 0.00 0.00 0.00 0.00 0.00 0.00 0.00 0.00 0.00 0.00 0.00 0.00 0.00 0.00 0.00 0.00 0.00 0.00 0.00 0.00 0.00 0.00 0.00 0.00 0.00 0.00 0.00 0.00 0.00 0.00 0.00 0.00 0.00 0.01 0.01 0.00 0.00 0.00 0.00 0.00 0.00
0.00 0.00 0.00 0.00 0.00 0.00 0.00 0.00 0.00 0.00 0.00 0.00 0.00 0.00 0.00 0.00 0.00 0.00 0.00 0.00 0.00 0.00 0.00 0.00 0.00 0.00 0.00 0.00 0.00 0.00 0.00 0.00 0.00 0.00 0.00 0.00 0.01 0.00 0.00 0.00 0.00 0.00 0.00
0.00 0.00 0.00 0.00 0.00 0.00 0.00 0.00 0.00 0.00 0.00 0.00 0.00 0.00 0.00 0.00 0.00 0.00 0.00 0.00 0.00 0.00 0.00 0.00 0.00 0.00 0.00 0.00 0.00 0.00 0.00 0.00 0.00 0.00 0.00 0.00 0.00 0.00 0.00 0.00 0.00 0.00 0.00
MSLP
1012.13 1013.13 1014.50 1015.14 1015.73 1016.28 1016.78 1017.48 1017.99 1018.30 1019.08 1019.74 1020.70 1021.32 1022.34 1023.43 1024.41 1024.95 1025.48 1025.51 1025.68 1025.74 1025.14 1024.83 1024.74 1024.73 1024.82 1024.66 1024.55 1024.46 1024.27 1024.06 1023.43 1023.01 1023.21 1023.06 1023.54 1024.35 1024.43 1024.14 1024.02 1023.81 1023.36
1011.88 1012.84 1013.96 1014.78 1015.42 1015.95 1016.63 1017.36 1017.83 1018.52 1019.53 1020.76 1021.16 1021.88 1022.66 1022.65 1023.95 1024.64 1024.98 1025.20 1024.84 1024.43 1024.36 1024.22 1024.20 1024.21 1024.18 1024.27 1024.29 1024.05 1023.84 1023.70 1023.53 1022.96 1022.76 1022.77 1022.87 1023.04 1023.61 1023.76 1023.56 1023.14 1022.78
1012.27 1013.49 1014.35 1014.94 1015.61 1016.36 1017.17 1017.90 1018.73 1019.43 1020.08 1021.02 1021.37 1022.13 1022.90 1023.84 1024.15 1024.24 1024.49 1024.16 1023.60 1023.71 1023.53 1023.42 1023.52 1023.68 1023.60 1023.52 1023.57 1023.43 1023.32 1023.15 1023.06 1022.70 1022.36 1022.48 1022.42 1022.53 1022.74 1022.73 1022.77 1022.50 1022.08
1013.44 1014.22 1015.09 1015.75 1016.35 1017.03 1017.66 1018.29 1018.92 1019.52 1020.26 1021.05 1022.10 1022.53 1023.00 1023.67 1024.37 1024.15 1023.78 1023.37 1022.99 1022.80 1022.83 1022.93 1022.95 1022.86 1022.95 1022.91 1022.89 1022.80 1022.81 1022.69 1022.47 1022.28 1021.99 1021.81 1021.80 1021.76 1021.97 1021.93 1021.69 1021.67 1021.24
1014.19 1014.95 1015.78 1016.48 1017.05 1017.62 1018.16 1018.77 1019.35 1019.90 1020.73 1021.48 1022.16 1022.66 1023.39 1023.67 1023.95 1023.98 1023.65 1023.48 1022.55 1022.25 1022.23 1022.24 1022.20 1022.14 1022.49 1022.56 1022.57 1022.32 1022.37 1022.20 1021.98 1021.91 1021.57 1021.63 1021.45 1021.14 1020.84 1021.09 1021.40 1021.18 1020.78
1014.69 1015.52 1016.49 1017.04 1017.69 1018.21 1018.74 1019.26 1019.74 1020.57 1021.20 1021.92 1022.44 1022.68 1022.98 1023.28 1023.34 1023.61 1023.75 1023.25 1022.56 1021.82 1021.51 1021.43 1021.33 1021.69 1022.14 1022.58 1022.52 1022.54 1022.63 1022.18 1021.92 1021.96 1021.73 1021.60 1021.13 1020.61 1020.65 1020.94 1021.04 1020.72 1020.07
1015.16 1016.11 1016.71 1017.20 1017.82 1018.45 1019.19 1019.96 1020.66 1021.11 1021.71 1022.03 1022.41 1022.68 1022.74 1022.79 1023.04 1023.10 1023.19 1023.09 1022.17 1021.45 1021.02 1020.74 1020.58 1020.57 1020.85 1021.41 1021.64 1021.86 1022.13 1022.24 1022.32 1021.95 1021.35 1021.02 1020.57 1020.46 1020.62 1020.68 1020.86 1020.48 1019.99
1015.91 1016.60 1017.34 1017.99 1018.76 1019.39 1019.91 1020.35 1020.84 1021.27 1021.69 1022.01 1022.14 1022.23 1022.07 1021.67 1022.08 1022.60 1022.87 1022.45 1021.60 1020.92 1020.49 1020.25 1020.04 1019.82 1019.78 1019.91 1020.33 1020.28 1020.22 1020.38 1020.81 1021.22 1020.88 1020.43 1020.24 1020.27 1020.50 1020.88 1020.91 1020.70 1020.30
1016.76 1017.43 1017.98 1018.48 1019.07 1019.70 1020.20 1020.68 1020.99 1021.27 1021.49 1021.69 1021.33 1021.38 1021.42 1021.44 1021.73 1022.22 1022.46 1021.71 1020.93 1020.32 1019.92 1019.58 1019.28 1019.02 1018.90 1019.12 1019.37 1019.29 1019.09 1019.22 1019.51 1019.94 1020.21 1020.44 1020.69 1021.02 1021.37 1021.16 1020.58 1020.04 1019.34
1017.20 1017.92 1018.47 1018.88 1019.38 1019.91 1020.34 1020.56 1020.46 1020.66 1020.88 1021.08 1021.16 1021.25 1021.36 1021.48 1021.56 1021.73 1022.01 1021.52 1020.73 1020.01 1019.49 1018.94 1018.60 1018.41 1018.36 1018.48 1018.46 1018.54 1018.42 1018.16 1018.67 1018.97 1019.35 1019.79 1020.27 1020.12 1020.80 1020.93 1020.18 1019.53 1018.98
1018.05 1018.69 1019.19 1019.55 1019.56 1019.80 1020.10 1020.42 1020.59 1020.68 1020.92 1021.12 1021.34 1021.33 1021.35 1021.36 1021.46 1021.71 1021.93 1021.69 1020.96 1020.14 1019.43 1018.59 1018.06 1017.85 1017.59 1017.59 1017.90 1017.81 1017.43 1017.45 1017.78 1017.99 1018.12 1018.44 1018.50 1018.37 1018.47 1019.07 1019.23 1018.86 1018.51
1018.65 1019.20 1019.45 1019.82 1020.12 1020.28 1020.42 1020.61 1020.71 1020.77 1020.97 1021.14 1021.40 1021.45 1021.36 1021.42 1021.54 1021.65 1021.74 1021.62 1021.25 1020.47 1019.39 1018.60 1018.03 1017.69 1017.57 1017.12 1016.82 1016.91 1016.82 1016.93 1017.11 1017.38 1017.51 1017.56 1017.60 1017.64 1017.69 1017.72 1018.00 1018.02 1017.92
1019.14 1019.55 1020.04 1020.39 1020.57 1020.72 1020.65 1020.86 1020.93 1021.17 1021.43 1021.61 1021.70 1021.68 1021.50 1021.68 1021.59 1021.58 1021.61 1021.52 1021.06 1020.33 1019.38 1018.39 1017.75 1017.18 1016.81 1016.44 1016.06 1015.97 1016.04 1015.98 1016.02 1016.43 1016.53 1016.65 1016.81 1016.79 1016.95 1017.28 1017.43 1017.52 1017.60
1019.72 1020.19 1020.52 1020.88 1020.85 1021.17 1021.28 1021.60 1021.70 1022.05 1022.25 1022.21 1022.15 1022.18 1022.14 1022.08 1021.90 1022.25 1022.11 1021.32 1020.58 1019.81 1018.62 1017.42 1016.82 1016.43 1015.79 1015.38 1015.04 1014.72 1014.75 1014.80 1014.98 1015.10 1015.32 1015.47 1015.88 1016.17 1016.40 1016.69 1016.93 1017.10 1017.11
1020.43 1020.87 1021.14 1021.48 1021.66 1021.69 1022.11 1022.76 1023.08 1023.30 1023.77 1023.33 1022.96 1022.96 1022.93 1022.81 1022.90 1023.35 1022.59 1021.59 1020.68 1019.60 1018.11 1016.95 1015.88 1015.04 1014.14 1013.67 1013.47 1013.60 1013.60 1013.79 1014.07 1014.40 1014.53 1014.88 1015.10 1015.40 1015.71 1016.02 1016.25 1016.39 1016.30
1020.97 1021.50 1022.12 1022.12 1022.34 1022.40 1022.57 1022.92 1024.01 1024.22 1024.21 1024.01 1024.16 1024.10 1023.76 1023.69 1023.59 1022.98 1022.17 1021.40 1020.21 1018.95 1017.20 1016.08 1015.16 1014.36 1013.69 1012.99 1012.42 1012.37 1012.71 1012.96 1013.20 1013.56 1013.79 1014.10 1014.40 1014.72 1014.98 1015.29 1015.44 1015.79 1015.69
1021.88 1022.23 1022.48 1022.68 1022.82 1023.03 1023.15 1023.31 1023.30 1023.40 1023.71 1023.96 1024.05 1024.08 1024.03 1023.90 1023.33 1022.44 1021.68 1020.86 1019.65 1018.75 1017.71 1016.85 1015.98 1014.96 1013.25 1012.16 1011.74 1011.83 1012.10 1012.16 1012.64 1012.96 1013.15 1013.41 1013.73 1014.03 1014.32 1014.51 1014.74 1015.04 1015.18
1022.92 1023.34 1022.88 1023.05 1023.30 1023.49 1023.64 1023.76 1023.71 1023.58 1023.34 1023.33 1023.44 1023.85 1023.92 1023.87 1023.34 1022.43 1021.69 1020.46 1019.47 1018.83 1018.28 1017.62 1016.88 1015.78 1014.46 1012.99 1011.53 1011.79 1011.84 1011.86 1012.15 1012.46 1012.55 1012.73 1013.07 1013.30 1013.55 1013.85 1014.13 1014.39 1014.54
1022.97 1023.37 1023.64 1023.83 1024.12 1024.27 1024.15 1024.04 1023.99 1023.82 1023.74 1023.53 1023.33 1023.26 1023.59 1023.91 1023.07 1022.37 1021.65 1020.83 1020.20 1019.48 1018.94 1018.24 1017.61 1016.89 1015.79 1014.79 1013.56 1012.22 1011.84 1011.75 1011.73 1011.84 1012.02 1012.16 1012.37 1012.62 1012.89 1013.19 1013.52 1013.84 1014.16
1023.70 1024.44 1024.47 1024.20 1024.29 1024.36 1024.32 1024.22 1024.12 1024.01 1023.95 1023.75 1023.56 1023.57 1023.84 1023.74 1022.59 1021.96 1021.60 1021.11 1020.72 1020.17 1019.61 1018.95 1018.30 1017.62 1016.98 1015.92 1014.79 1013.55 1012.44 1011.53 1011.43 1011.47 1011.46 1011.57 1011.70 1012.01 1012.28 1012.62 1012.99 1013.36 1013.74
1023.96 1024.44 1025.12 1024.63 1024.63 1024.76 1024.70 1024.56 1024.49 1024.32 1024.22 1024.06 1023.88 1024.01 1024.76 1024.22 1022.77 1022.22 1021.80 1021.28 1020.99 1020.63 1020.10 1019.47 1018.83 1018.15 1017.47 1016.79 1015.80 1014.83 1013.65 1012.62 1011.39 1011.10 1011.06 1011.06 1011.14 1011.38 1011.75 1012.08 1012.47 1012.94 1013.20
1024.76 1024.95 1025.08 1025.15 1025.16 1025.19 1025.36 1025.07 1024.89 1024.74 1024.56 1024.34 1024.12 1024.03 1024.19 1023.45 1022.84 1022.46 1021.97 1021.68 1021.35 1020.87 1020.47 1019.81 1019.12 1018.44 1017.82 1017.34 1016.65 1015.70 1014.53 1013.53 1012.43 1011.64 1010.95 1010.83 1010.74 1010.93 1011.27 1011.60 1012.02 1012.46 1012.87
1025.31 1025.47 1025.53 1025.64 1025.75 1025.85 1025.53 1025.48 1025.32 1025.21 1024.95 1024.72 1024.45 1024.12 1023.82 1023.44 1023.15 1022.65 1022.16 1021.80 1021.32 1020.95 1020.49 1019.96 1019.29 1018.56 1017.91 1017.42 1017.05 1016.27 1015.19 1014.17 1013.36 1013.03 1012.39 1010.76 1010.41 1010.50 1010.74 1011.11 1011.57 1012.05 1012.43
1025.78 1025.88 1025.90 1025.89 1025.96 1025.94 1025.83 1025.80 1025.64 1025.54 1025.41 1024.98 1024.68 1024.32 1023.91 1023.68 1023.31 1022.84 1022.36 1021.82 1021.40 1020.92 1020.45 1019.87 1019.42 1018.63 1017.84 1017.31 1016.75 1016.17 1015.41 1014.59 1014.19 1013.56 1012.84 1011.76 1010.13 1010.08 1010.21 1010.56 1011.04 1011.52 1011.96
1026.10 1026.15 1026.17 1026.12 1026.08 1026.09 1026.07 1025.93 1025.77 1025.61 1025.43 1025.19 1024.82 1024.46 1024.07 1023.70 1023.20 1022.76 1022.36 1021.92 1021.48 1020.77 1020.11 1019.73 1018.91 1018.09 1017.60 1016.99 1016.40 1015.72 1015.01 1014.54 1014.33 1013.75 1012.76 1011.61 1010.22 1009.59 1009.70 1009.97 1010.43 1011.07 1011.67
1026.20 1026.27 1026.26 1026.27 1026.17 1026.23 1026.17 1026.08 1025.95 1025.84 1025.64 1025.40 1025.08 1024.67 1024.29 1023.78 1023.23 1022.73 1022.34 1021.85 1021.20 1020.76 1020.05 1018.92 1018.27 1017.72 1017.19 1016.38 1015.46 1014.92 1014.54 1014.13 1013.57 1012.94 1012.37 1011.38 1010.16 1009.03 1009.16 1009.46 1009.94 1010.51 1011.26
Thickness
5635 5627 5615 5608 5601 5594 5587 5578 5570 5563 5554 5545 5533 5523 5510 5498 5486 5477 5467 5459 5448 5440 5438 5431 5423 5413 5403 5396 5388 5378 5370 5361 5357 5353 5331 5319 5306 5291 5280 5272 5264 5257 5253
5631 5623 5613 5605 5597 5590 5581 5572 5564 5554 5542 5527 5517 5513 5500 5495 5478 5466 5457 5448 5443 5438 5431 5422 5412 5403 5394 5382 5372 5364 5356 5346 5335 5330 5321 5306 5293 5283 5272 5262 5253 5248 5245
5621 5610 5602 5595 5587 5578 5567 5558 5548 5540 5531 5519 5510 5501 5488 5476 5465 5455 5448 5445 5441 5430 5422 5414 5404 5392 5383 5373 5362 5354 5343 5332 5320 5312 5308 5294 5285 5274 5266 5256 5247 5241 5238
5602 5594 5585 5578 5571 5563 5554 5546 5537 5529 5520 5510 5497 5489 5479 5465 5451 5445 5440 5436 5430 5423 5413 5402 5393 5383 5373 5362 5352 5342 5329 5318 5308 5299 5294 5287 5277 5269 5258 5251 5245 5237 5234
5587 5580 5571 5564 5557 5549 5541 5532 5523 5515 5504 5494 5482 5471 5458 5449 5439 5432 5428 5420 5419 5413 5403 5393 5383 5373 5360 5348 5338 5329 5315 5305 5297 5287 5283 5274 5268 5262 5256 5246 5235 5232 5228
5573 5565 5556 5549 5541 5534 5526 5518 5510 5497 5487 5474 5464 5456 5447 5439 5431 5423 5413 5409 5406 5401 5393 5382 5372 5361 5347 5332 5322 5311 5298 5290 5283 5272 5267 5259 5257 5254 5246 5236 5228 5225 5226
5561 5550 5544 5538 5530 5521 5511 5499 5488 5479 5468 5460 5451 5443 5435 5427 5419 5411 5403 5397 5394 5387 5379 5370 5361 5350 5336 5323 5309 5297 5285 5274 5266 5260 5255 5251 5247 5240 5233 5226 5219 5218 5218
5546 5538 5528 5520 5509 5500 5492 5484 5475 5465 5456 5448 5440 5432 5426 5422 5410 5399 5389 5384 5381 5375 5367 5357 5347 5338 5325 5310 5299 5288 5279 5269 5258 5250 5244 5240 5234 5227 5219 5212 5208 5206 5206
5528 5520 5512 5505 5496 5486 5478 5469 5460 5452 5443 5434 5431 5423 5416 5408 5396 5385 5375 5373 5369 5363 5354 5345 5336 5326 5313 5297 5284 5273 5269 5260 5245 5240 5229 5223 5217 5210 5202 5198 5200 5201 5204
5515 5506 5498 5491 5482 5472 5463 5456 5451 5442 5434 5425 5417 5409 5401 5393 5384 5371 5359 5353 5351 5348 5343 5333 5321 5310 5300 5279 5269 5260 5253 5251 5233 5226 5223 5213 5205 5202 5194 5190 5193 5195 5198
5497 5488 5480 5472 5468 5461 5453 5443 5435 5428 5419 5411 5402 5393 5386 5378 5369 5356 5341 5332 5327 5325 5319 5315 5306 5291 5282 5272 5254 5247 5244 5236 5225 5220 5214 5208 5204 5202 5200 5195 5191 5192 5193
5481 5472 5465 5458 5450 5443 5435 5426 5419 5412 5404 5395 5385 5377 5370 5361 5351 5340 5326 5312 5301 5296 5296 5292 5283 5272 5260 5254 5246 5237 5230 5222 5217 5210 5207 5204 5200 5197 5195 5194 5190 5189 5189
5464 5456 5447 5439 5431 5423 5417 5409 5403 5394 5386 5377 5368 5360 5354 5342 5333 5322 5310 5298 5288 5279 5272 5268 5260 5254 5245 5238 5233 5227 5221 5216 5211 5205 5204 5201 5197 5195 5191 5188 5186 5185 5184
5447 5438 5430 5420 5414 5405 5398 5389 5382 5372 5363 5357 5350 5340 5331 5321 5311 5297 5286 5281 5274 5266 5260 5258 5249 5241 5235 5230 5226 5224 5219 5213 5209 5205 5202 5200 5195 5190 5187 5184 5182 5180 5180
5428 5418 5410 5400 5392 5386 5376 5364 5354 5346 5335 5331 5326 5317 5306 5297 5284 5268 5261 5257 5249 5245 5244 5241 5239 5234 5235 5232 5227 5220 5216 5210 5204 5200 5197 5193 5190 5186 5183 5181 5179 5178 5178
5409 5398 5385 5379 5370 5363 5356 5349 5330 5319 5312 5306 5297 5289 5280 5269 5259 5251 5243 5235 5231 5227 5231 5229 5226 5223 5222 5223 5224 5219 5211 5204 5201 5196 5194 5189 5185 5182 5180 5179 5178 5175 5176
5386 5377 5368 5359 5352 5343 5335 5327 5320 5311 5299 5288 5277 5268 5256 5248 5241 5236 5229 5221 5216 5211 5209 5204 5201 5202 5213 5218 5217 5211 5204 5200 5194 5190 5188 5185 5182 5180 5178 5177 5176 5174 5173
5361 5352 5351 5342 5333 5324 5316 5307 5300 5292 5284 5274 5263 5249 5238 5226 5218 5213 5208 5206 5203 5193 5185 5182 5179 5182 5187 5195 5205 5198 5194 5192 5189 5185 5183 5181 5178 5177 5177 5175 5174 5172 5171
5347 5337 5329 5321 5311 5303 5296 5288 5280 5272 5263 5254 5245 5234 5221 5207 5201 5194 5187 5183 5178 5174 5168 5164 5160 5160 5163 5167 5173 5182 5183 5182 5181 5179 5178 5177 5176 5175 5175 5173 5172 5170 5167
5326 5312 5306 5302 5294 5286 5278 5270 5262 5252 5242 5233 5224 5214 5201 5191 5189 5182 5174 5167 5159 5153 5147 5144 5142 5141 5141 5145 5151 5159 5166 5174 5174 5173 5173 5173 5173 5172 5172 5171 5170 5168 5164
5308 5297 5284 5282 5274 5265 5257 5249 5240 5231 5221 5212 5202 5190 5173 5168 5170 5164 5157 5151 5143 5135 5129 5125 5123 5123 5123 5125 5130 5137 5146 5153 5164 5167 5168 5169 5170 5170 5169 5169 5168 5165 5163
5284 5275 5267 5259 5251 5243 5232 5225 5217 5208 5200 5191 5182 5173 5160 5156 5151 5144 5139 5132 5123 5117 5111 5109 5107 5106 5107 5108 5111 5119 5129 5136 5146 5154 5161 5163 5166 5167 5166 5167 5165 5163 5160
5261 5253 5245 5236 5227 5217 5211 5201 5193 5184 5177 5168 5161 5154 5146 5139 5131 5126 5121 5114 5106 5100 5095 5093 5092 5092 5093 5094 5096 5103 5113 5123 5131 5134 5141 5157 5162 5163 5164 5164 5162 5160 5158
5239 5231 5223 5215 5205 5196 5188 5179 5171 5162 5154 5148 5141 5134 5127 5120 5113 5108 5102 5096 5089 5084 5081 5080 5078 5079 5080 5082 5085 5092 5101 5110 5115 5122 5130 5141 5157 5161 5162 5162 5160 5158 5156
5217 5209 5200 5192 5184 5175 5166 5158 5151 5143 5136 5128 5121 5115 5108 5102 5097 5091 5084 5078 5073 5071 5070 5067 5069 5070 5070 5072 5075 5083 5094 5100 5106 5112 5122 5133 5149 5157 5159 5160 5158 5155 5152
5196 5187 5179 5170 5163 5154 5146 5138 5131 5123 5115 5108 5101 5095 5089 5085 5080 5074 5068 5063 5061 5058 5058 5061 5062 5063 5063 5064 5069 5077 5087 5095 5102 5109 5117 5128 5141 5154 5157 5157 5155 5153 5149